GFSFLT2_700_temp_108.txt.gz
Temp
-0 -0 -0 -0 -0 -0 -0 -0 -0 -0 0 0 0 0 1 1 1 1 1 1 1 1 1 1 1 1 1
-1 -0 -0 -0 -0 -0 -0 -0 -0 -0 0 0 0 0 1 1 1 1 1 1 1 1 1 1 1 1 1
-1 -1 -1 -1 -0 -0 -0 0 -0 -0 -0 0 0 1 0 1 1 1 1 1 1 1 1 -0 -0 0 1
-1 -1 -1 -1 -1 -1 -0 -0 -1 -1 -1 -0 -0 -0 -0 -0 0 1 1 1 1 1 0 -1 -1 0 1
-2 -2 -2 -3 -2 -1 -1 -1 -1 -1 -1 -1 -0 -0 -0 -0 0 1 0 0 -0 -0 -1 -1 -0 -0 1
-2 -2 -2 -2 -2 -2 -1 -1 -1 -1 -1 -1 -0 -1 -1 -1 -0 -0 -0 -0 -1 -1 -1 -1 -0 0 1
-4 -3 -3 -3 -3 -2 -2 -2 -1 -1 -1 -1 -1 -1 -1 -1 -1 -1 -1 -1 -1 -0 -1 -1 0 0 1
-6 -5 -5 -5 -4 -4 -3 -3 -2 -1 -2 -1 -1 -1 -1 -1 -1 -1 -1 -1 -1 -1 -1 -1 -0 0 1
-8 -7 -7 -7 -7 -6 -5 -5 -4 -3 -3 -3 -2 -2 -2 -2 -2 -1 -1 -1 -1 -1 -1 -1 -1 -0 0
-10 -10 -9 -9 -8 -8 -7 -6 -6 -5 -5 -4 -4 -3 -3 -3 -2 -2 -2 -2 -2 -2 -1 -1 -1 -2 -1
-10 -11 -11 -10 -10 -9 -9 -8 -7 -6 -6 -5 -4 -5 -5 -4 -3 -3 -3 -2 -2 -2 -2 -2 -1 -2 -2
-12 -11 -11 -11 -11 -10 -10 -9 -9 -8 -7 -7 -6 -5 -6 -5 -5 -3 -3 -3 -3 -3 -3 -2 -2 -2 -2
-12 -12 -12 -12 -11 -11 -11 -10 -10 -10 -9 -9 -9 -8 -6 -7 -6 -5 -4 -4 -4 -3 -3 -3 -3 -2 -2
-13 -13 -13 -12 -12 -12 -12 -11 -10 -10 -10 -10 -10 -10 -9 -8 -6 -6 -5 -5 -4 -4 -4 -3 -3 -2 -3
-15 -14 -14 -13 -13 -13 -13 -12 -11 -10 -10 -10 -10 -10 -10 -9 -7 -7 -6 -5 -4 -5 -4 -4 -4 -3 -3
-17 -16 -15 -15 -14 -14 -14 -13 -12 -12 -11 -10 -11 -11 -10 -9 -9 -8 -7 -6 -5 -5 -5 -5 -4 -4 -4
-18 -17 -16 -16 -15 -15 -14 -14 -13 -13 -12 -12 -11 -11 -10 -9 -9 -8 -6 -6 -6 -6 -5 -5 -5 -5 -5

GFSFLT2_700_temp_111.txt.gz
Temp
-1 -0 -0 -0 0 -0 0 -0 -0 -0 -0 -0 -0 -0 -0 -0 -0 0 1 1 0 0 1 1 1 1 1
-1 -1 -1 -0 -0 -1 -0 -0 -0 -0 -0 -0 -0 -0 -0 -0 0 0 0 1 1 1 1 1 1 0 1
-1 -1 -1 -1 -1 -1 -1 -1 -1 -0 -0 -0 -0 -0 -0 -0 0 0 0 1 1 1 1 1 1 1 1
-1 -1 -2 -2 -1 -1 -1 -1 -1 -1 -1 -1 -0 -0 -0 -0 0 0 0 1 1 0 1 1 1 0 1
-3 -3 -2 -2 -1 -1 -1 -1 -1 -1 -1 -1 -1 -1 -1 -0 -0 -0 0 0 1 1 1 1 0 0 1
-4 -4 -3 -3 -3 -3 -2 -2 -1 -1 -1 -1 -1 -1 -1 -1 -1 -0 -0 0 1 1 0 -0 -0 -0 0
-5 -5 -5 -4 -4 -4 -3 -3 -2 -2 -3 -2 -1 -1 -1 -1 -0 -0 -0 0 -0 -0 -0 -0 -0 -1 -1
-8 -7 -7 -6 -6 -5 -4 -4 -3 -3 -3 -1 -1 -1 -1 -1 -1 -1 -1 -1 -1 -1 -1 -1 -1 -1 -1
-10 -9 -9 -8 -8 -7 -6 -5 -4 -4 -4 -3 -2 -1 -2 -1 -1 -1 -1 -1 -1 -1 -1 -1 -1 -1 -2
-12 -11 -11 -10 -10 -9 -8 -8 -7 -6 -5 -5 -4 -3 -2 -2 -2 -1 -1 -1 -1 -1 -2 -2 -2 -1 -1
-12 -12 -12 -12 -12 -11 -10 -10 -9 -8 -7 -6 -6 -5 -4 -3 -2 -2 -2 -2 -2 -2 -2 -2 -2 -2 -2
-14 -13 -13 -12 -12 -12 -12 -11 -11 -10 -9 -9 -7 -7 -6 -5 -4 -3 -3 -2 -3 -3 -2 -2 -2 -2 -2
-16 -15 -15 -14 -13 -13 -12 -12 -12 -11 -11 -10 -9 -8 -7 -6 -5 -5 -4 -4 -3 -3 -3 -3 -3 -2 -2
-18 -18 -17 -15 -14 -14 -13 -13 -12 -12 -11 -11 -10 -9 -8 -8 -7 -6 -6 -5 -5 -4 -5 -4 -4 -3 -3
-18 -18 -18 -17 -16 -15 -15 -14 -13 -13 -12 -12 -11 -10 -9 -9 -8 -8 -9 -7 -6 -6 -6 -6 -4 -4 -3
-18 -18 -18 -17 -17 -16 -16 -15 -14 -14 -13 -12 -12 -12 -10 -9 -9 -8 -9 -9 -8 -7 -8 -6 -6 -5 -4
-19 -19 -18 -18 -18 -17 -16 -16 -15 -14 -14 -13 -13 -12 -12 -10 -10 -10 -9 -9 -9 -9 -7 -7 -5 -5 -5

GFSFLT2_700_temp_117.txt.gz
Temp
-2 -2 -1 -2 -1 -0 0 -0 0 0 1 1 1 1 1 1 1 1 0 1 1 1 1 0 1 1 1
-2 -2 -2 -3 -3 -2 -1 -0 0 -0 0 -0 0 0 1 0 0 1 1 1 1 1 1 1 1 1 0
-3 -3 -3 -2 -2 -3 -3 -1 -1 -1 -1 -1 -0 -0 -0 0 0 0 0 0 -0 -0 -0 0 -0 0 0
-5 -4 -4 -4 -3 -2 -2 -3 -3 -2 -2 -1 -1 -1 -1 -0 -0 -0 -0 -0 -0 -0 -0 -0 -0 -0 -0
-6 -6 -6 -5 -5 -5 -4 -3 -4 -4 -3 -2 -2 -1 -1 -1 -1 -1 -1 -0 -0 -1 -0 -0 -0 -0 -0
-7 -6 -6 -6 -6 -6 -5 -5 -3 -4 -4 -4 -3 -2 -1 -1 -1 -1 -1 -1 -0 -0 -0 -0 -0 0 0
-7 -8 -7 -7 -7 -6 -7 -6 -6 -5 -4 -2 -3 -2 -2 -2 -1 -1 -1 -1 -1 -1 -1 -0 -0 -0 -0
-9 -9 -9 -9 -9 -9 -7 -7 -7 -7 -6 -4 -4 -3 -3 -3 -2 -2 -2 -1 -1 -1 -1 -1 -1 -1 -1
-11 -11 -11 -12 -11 -11 -10 -10 -8 -8 -8 -7 -6 -4 -4 -4 -3 -4 -2 -2 -1 -1 -1 -1 -1 -1 -1
-12 -13 -13 -13 -13 -13 -12 -12 -11 -10 -9 -9 -8 -7 -6 -5 -4 -4 -3 -3 -2 -1 -2 -1 -1 -0 -0
-13 -13 -13 -13 -14 -14 -14 -14 -13 -13 -11 -11 -10 -10 -8 -6 -6 -5 -5 -4 -3 -3 -4 -2 -1 -1 -1
-14 -14 -14 -14 -15 -15 -15 -15 -15 -14 -14 -13 -12 -11 -10 -9 -7 -7 -6 -5 -5 -4 -4 -4 -2 -2 -2
-15 -15 -15 -16 -16 -16 -16 -16 -16 -16 -16 -14 -13 -12 -12 -10 -9 -8 -7 -7 -6 -5 -5 -4 -3 -2 -2
-16 -16 -16 -17 -17 -17 -17 -17 -17 -16 -17 -16 -15 -14 -12 -12 -11 -9 -8 -7 -7 -6 -5 -5 -4 -3 -2
-17 -17 -17 -17 -18 -18 -18 -17 -17 -17 -16 -16 -16 -15 -14 -13 -12 -11 -9 -8 -8 -7 -6 -6 -5 -4 -4
-17 -18 -18 -18 -18 -18 -19 -18 -18 -18 -17 -17 -16 -16 -15 -14 -13 -12 -11 -10 -9 -8 -7 -6 -5 -5 -4
-17 -18 -18 -19 -19 -19 -19 -19 -19 -19 -18 -18 -17 -17 -16 -15 -14 -13 -12 -11 -10 -9 -9 -7 -6 -6 -6

GFSFLT2_700_temp_120.txt.gz
Temp
-4 -3 -3 -2 -2 -2 -2 -3 -2 -2 -1 -1 -1 0 0 1 2 2 2 2 1 1 1 1 2 2 1
-5 -4 -4 -4 -3 -3 -3 -3 -1 -2 -3 -2 -1 -0 -0 1 1 1 1 1 1 0 0 0 1 1 1
-5 -5 -5 -5 -5 -5 -4 -4 -4 -3 -3 -3 -2 -1 -1 -0 1 0 -0 1 1 1 1 1 1 1 1
-6 -6 -6 -6 -6 -5 -5 -5 -5 -5 -4 -3 -4 -3 -2 -1 -1 -1 -0 0 -0 -0 -0 0 0 0 1
-6 -6 -6 -6 -6 -6 -5 -5 -5 -5 -4 -4 -4 -3 -3 -3 -2 -1 -1 -1 -0 -0 -0 -0 -0 0 0
-7 -7 -7 -7 -7 -6 -6 -6 -5 -6 -5 -5 -5 -4 -4 -3 -3 -2 -2 -2 -1 -1 -0 -0 -0 -0 -0
-8 -8 -8 -8 -8 -8 -7 -7 -6 -6 -6 -5 -6 -5 -5 -5 -4 -3 -3 -2 -2 -1 -1 -1 -1 -0 -0
-10 -10 -10 -10 -10 -10 -9 -9 -8 -8 -8 -8 -7 -6 -6 -6 -5 -5 -4 -3 -2 -2 -1 -1 -1 -0 -0
-11 -11 -12 -12 -12 -12 -12 -11 -10 -10 -10 -11 -9 -8 -7 -7 -6 -5 -3 -3 -3 -3 -2 -1 -1 -1 -0
-11 -12 -13 -13 -14 -14 -14 -13 -13 -12 -12 -12 -11 -10 -8 -7 -7 -7 -6 -4 -4 -2 -3 -2 -1 -1 -1
-12 -12 -13 -14 -14 -14 -15 -15 -14 -14 -14 -14 -13 -13 -12 -9 -8 -8 -7 -6 -4 -3 -3 -2 -2 -2 -1
-13 -13 -13 -14 -15 -15 -16 -16 -16 -16 -15 -15 -15 -15 -13 -12 -9 -8 -9 -7 -6 -5 -4 -3 -3 -2 -1
-13 -13 -14 -14 -15 -16 -16 -16 -16 -16 -16 -16 -16 -16 -15 -14 -12 -10 -9 -9 -8 -6 -4 -4 -3 -3 -2
-14 -14 -14 -14 -15 -16 -16 -17 -17 -17 -17 -17 -17 -17 -16 -15 -14 -12 -11 -9 -9 -8 -6 -6 -5 -4 -3
-15 -15 -15 -16 -16 -17 -17 -18 -18 -17 -17 -18 -18 -17 -17 -16 -15 -14 -12 -11 -10 -10 -8 -7 -6 -6 -4
-17 -17 -17 -16 -17 -17 -18 -19 -18 -18 -18 -18 -18 -18 -18 -17 -16 -14 -13 -12 -11 -10 -9 -8 -7 -7 -5
-17 -18 -18 -18 -18 -18 -18 -19 -19 -19 -19 -19 -19 -18 -17 -17 -16 -16 -14 -13 -12 -11 -11 -9 -8 -7 -7

GFSFLT2_700_temp_123.txt.gz
Temp
-5 -5 -5 -4 -4 -4 -4 -3 -3 -3 -3 -3 -2 -2 -2 -1 -0 -0 0 0 1 1 2 2 2 2 2
-6 -6 -6 -6 -5 -5 -5 -5 -4 -4 -4 -3 -3 -2 -3 -2 -1 -1 -0 -0 0 1 1 1 1 1 1
-6 -6 -6 -6 -6 -6 -6 -5 -5 -5 -5 -4 -4 -3 -3 -3 -3 -1 -1 -1 0 0 1 1 1 0 0
-6 -6 -6 -6 -6 -6 -6 -6 -6 -6 -5 -5 -5 -4 -3 -3 -3 -3 -1 -1 -1 0 1 0 1 1 1
-6 -6 -6 -6 -7 -7 -6 -6 -6 -6 -6 -6 -5 -5 -5 -4 -3 -3 -3 -2 -1 -0 0 1 0 0 1
-7 -7 -8 -8 -8 -8 -7 -7 -7 -7 -6 -6 -6 -6 -6 -5 -4 -3 -4 -3 -2 -1 -1 -0 0 1 0
-8 -8 -8 -9 -8 -8 -8 -8 -8 -8 -8 -7 -7 -6 -6 -6 -6 -5 -4 -3 -4 -2 -1 -1 -1 -0 -0
-9 -9 -10 -10 -10 -10 -10 -9 -9 -10 -10 -9 -8 -8 -7 -7 -7 -6 -5 -4 -4 -4 -2 -1 -1 -1 -1
-10 -10 -10 -11 -11 -11 -11 -11 -11 -11 -11 -12 -11 -9 -9 -8 -9 -8 -7 -6 -5 -5 -4 -3 -2 -2 -1
-11 -11 -12 -12 -12 -13 -13 -13 -13 -12 -13 -13 -12 -12 -11 -10 -10 -10 -9 -7 -6 -6 -6 -4 -3 -2 -1
-11 -12 -12 -13 -13 -14 -14 -14 -14 -14 -14 -15 -14 -14 -14 -12 -11 -11 -10 -9 -8 -6 -5 -6 -5 -3 -2
-12 -12 -13 -13 -14 -14 -14 -15 -15 -15 -15 -16 -15 -15 -15 -14 -13 -12 -11 -10 -9 -8 -6 -5 -5 -4 -3
-13 -13 -14 -14 -15 -15 -15 -15 -15 -16 -16 -17 -17 -17 -16 -16 -14 -13 -13 -12 -11 -9 -8 -6 -5 -4 -4
-13 -14 -15 -15 -16 -16 -16 -16 -15 -16 -17 -18 -18 -17 -17 -16 -16 -14 -14 -13 -12 -11 -9 -7 -6 -4 -4
-15 -15 -16 -16 -16 -17 -17 -17 -17 -17 -17 -19 -19 -18 -18 -17 -16 -16 -15 -14 -13 -12 -11 -8 -7 -6 -5
-16 -16 -17 -17 -17 -18 -18 -18 -18 -18 -18 -19 -19 -19 -18 -18 -18 -17 -16 -15 -14 -13 -12 -10 -9 -7 -7
-16 -17 -17 -17 -18 -18 -18 -18 -18 -18 -19 -19 -19 -19 -18 -17 -17 -18 -16 -16 -15 -14 -13 -11 -9 -9 -8